    Orbital elements:
    2019 UM9                                                 Earth MOID = 0.0069 AU
    Epoch 2019 Apr. 27.0 TT = JDT 2458600.5                 Bell
    M  86.55138              (2000.0)            P               Q
    n   1.00962153     Peri.  105.58204     -0.74076087     -0.66129826
    a   0.9840798      Node    33.28249     +0.50374342     -0.66317246
    e   0.1533213      Incl.   12.43250     +0.44442761     -0.35055228
    P   0.98           H   27.4           G   0.15           U   6
    Residuals in seconds of arc
    191027 G96  0.8+  0.5-    191027 587  0.2+  0.3-    191027 J69 (1.5+  0.2-)
    191027 G96  1.3+  0.5-    191027 104  0.2-  0.3+    191027 J69  0.5+  0.4-
    191027 G96  1.0-  0.6+    191027 587  0.2+  0.1-    191027 C77  0.6-  1.4+
    191027 H01  0.3-  0.4+    191027 587  0.1+  0.1-    191027 C77  0.3-  0.4+
    191027 H01  0.1-  0.2+    191027 104  0.2+  0.1+    191027 C77  1.1-  1.2+
    191027 H01  0.4-  0.3+    191027 104  0.1-  0.3+    191027 K96  1.2+  0.6-
    191027 H01  0.0   0.3+    191027 J95  0.2+  0.1+    191027 K96  0.6+  0.3+
    191027 H36 (2.5-  2.1+)   191027 J95  0.1+  0.0     191027 K96  1.0+  0.9-
    191027 H36 (1.8-  1.1+)   191027 J95  0.6+  0.2-    191027 J04  0.9+  0.4-
    191027 I52  0.1-  0.0     191027 J95  0.4+  0.2+    191027 J04  0.9+  0.3-
    191027 I52  1.1+  0.6-    191027 K63  0.9-  1.1-    191027 W34  0.3-  0.2+
    191027 I52  0.6-  0.1+    191027 K63  0.3-  0.0     191027 W34  0.2-  0.1-
    191027 I52  0.3-  0.0     191027 J95  0.4+  0.3-    191028 W34  1.0-  0.2+
    191027 H36 (2.3-  1.1+)   191027 K63 (2.4-  0.2+)   191028 W34  0.7-  0.3+
    191027 L01  0.3-  0.3+    191027 K63 (1.8-  0.2+)   191028 W34  0.2+  0.2-
    191027 L01  0.4-  0.3+    191027 L04  0.2-  0.1+    191028 X31  0.0   0.0
    191027 L01  0.2-  0.2+    191027 L04  0.5-  0.7+    191028 X31  0.6-  0.6+
    191027 L01  0.2-  0.6+    191027 L04  0.3-  0.7+    191028 X31  1.2-  0.5+
    191027 L01  0.5-  0.3+    191027 Z80  0.0   0.3+    191028 H21  0.2+  0.0
    191027 L01  0.7-  0.3+    191027 Z80  0.1-  0.1-    191028 H21  0.1+  0.2-
    191027 L01  0.9-  0.1-    191027 Z80  0.1+  0.1+    191028 H21  0.3+  0.1-
    191027 104  0.5-  0.1-    191027 J69  0.1-  0.0     191028 H21  0.7+  0.2-
    191027 104  0.3+  0.2-    191027 J69  0.6-  0.2-    191028 H21  0.7+  0.2-
    
    Ephemeris:
    2019 UM9                 a,e,i = 0.98, 0.15, 12                  q = 0.8332
    Date    TT    R. A. (2000) Decl.     Delta      r    Elong.  Phase     V
    2019 09 28    03 56 39.8 -31 53 49   0.1326  1.0709   117.9    55.8    25.2
    ...
    2019 10 13    03 51 54.3 -31 48 20   0.06743 1.0381   125.0    52.0    23.5
    ...
    2019 10 21    03 24 22.5 -28 39 12   0.03286 1.0186   133.6    45.1    21.7
    ...
    2019 10 27    01 06 15.6 -03 19 00   0.0098741.0033   158.8    21.0    18.4
    2019 10 28    23 46 56.1 +13 48 44   0.0082701.0007   145.9    33.8    18.4
    2019 10 29    22 02 02.9 +30 52 00   0.0088060.9980   120.4    59.1    19.2
    ...
    2019 11 04    17 38 58.1 +40 13 57   0.03044 0.9819    70.0   108.3    23.8
    ...
    2019 11 12    16 55 15.4 +37 39 56   0.06428 0.9602    60.8   115.8    25.9
    ...
    2019 11 27    16 32 39.3 +33 59 28   0.1277  0.9201    55.3   118.2    27.5
    2019 UM9                 a,e,i = 0.98, 0.15, 12                  q = 0.8332
    
    A. U. Tomatic                (C) Copyright 2019 MPC           M.P.E.C. 2019-U233
    


    Read MPEC 2019-U232 Read MPEC 2019-U234


    MPEC number:

    Enter an MPEC number in one of the following forms:

    • 1997-B01 (the full form)
    • J97B01 (the packed version of the full form)
    • B01 (the abbreviated form)